CZ-3C DEB, 40202

Orbit data source: Space-Track

CZ-3C DEB, 40202 is space debris in HEO originally from a launch on Fri, 24 Feb 2012 UTC launched from the Xichang Space Center, China (XSC). Debris objects in space refer to the collection of defunct objects orbiting the Earth. Examples of debris include non-operational satellites, rocket bodies, and fragments generated from explosions, collisions, or faulty payload assembly.

Loading next visibility...
Identifier
40202, 2012-008M
Orbit
HEO
Last TLE update
2 days ago
Origin
Manufacturer
CALT
Mission
Spacecraft
Bus & Motor
Unknown
Mass
Unknown
Launch date (UTC)
2012-02-24 (13 years ago)
Launch vehicle
Unknown
Launch site
Xichang Space Center, China (XSC)
Object type
Payload
Rocket body
Debris
Shape & HBR
Unknown
Radar Cross Section
Medium (>0.1 m² and <1 m²)

Expand to show TLE details & history

TLE from 2 days ago
0 CZ-3C DEB
1 40202U 12008M   25127.75143932  .00000150  00000-0  17642-2 0  9998
2 40202  20.6079 351.0515 7124047 272.4393  14.9443  2.36000405101365
Epoch: 2025-05-07T18:02Z
Definitive object data (Epoch: 2025-05-07T18:02:04.357Z)
Latitude
0.00031°
Longitude
-145.31271°
Altitude
5,027.236 km
Speed
7.291 km/s
True Right ascension
23h 24m 08s
True Declination
0° 00' 01"
Sunlit
Object was in daylight at TLE epoch
Visualization TLE readout
Latitude
19.8196°
Longitude
-39.16647°
Altitude
32,230.585 km
Speed
1.981 km/s
Apparent Right ascension
06h 04m 59s
Apparent Declination
12° 54' 55"
Sunlit
Object is in daylight
Visualization observer readout
Local Sidereal Time
14:44:48
Azimuth
307.485° NW
Elevation
-19.672°
Doppler factor
1
Orbital elements
Apogee altitude
34,436.196 km
Perigee altitude
476.557 km
Semi-major axis
23,834.514 km
Eccentricity
0.7124047
Inclination
20.6079°
RAAN
351.0515°
Arg. of periapsis
272.4393°
True anomaly
87.06035°
Mean anomaly
14.9443°
Eccentric anomaly
42.54294°
Mean motion
0.58984 °/min
BSTAR
0.0017642
Orbital period
610.34 mins
Loading maneuver chart data...
Loading SW <> Apogee altitude chart data...
Loading historical data...
Loading historical data...
Loading historical data...
Loading historical data...
Loading historical data...
Loading historical data...
Loading historical data...

CZ-3C DEB Visibility forecast

Observer location: undefined°, undefined°

Span
Click to sort rows by Start time (UTC) header in descending order
Start Az.
Max El. time (UTC)
Max El. Az.
Max El.
End time (UTC)
End Az.
434 mins2025-05-09 21:23:56.537Z259.511° W2025-05-09 23:16:56.537Z260.01° W29.135°2025-05-10 04:37:56.537Z272.987° WNW
|